Regional Weather Roundup
Issued by NWS Jackson, KY

Home | Current Version | Previous Version | Text Only | Print | Product List | Glossary On
Versions: 1 2 3 4 5 6 7 8 9 10 11 12 13 14 15 16 17 18 19 20 21 22 23 24 25 26 27 28 29 30 31 32 33 34 35 36 37 38 39 40 41 42 43 44 45 46 47 48 49 50
000
ASUS43 KJKL 170919
RWRJKL

EAST KENTUCKY HOURLY WEATHER ROUNDUP
NATIONAL WEATHER SERVICE JACKSON KY
500 AM EDT THU APR 17 2014

NOTE: "FAIR" INDICATES FEW OR NO CLOUDS BELOW 12,000 FEET WITH
NO SIGNIFICANT WEATHER AND/OR OBSTRUCTIONS TO VISIBILITY.

* THESE REPORTS ARE NOT UNDER NWS QUALITY CONTROL AND MAY NOT
  REPORT WEATHER SUCH AS PRECIPITATION AND FOG.

KYZ079-080-083-085-087-088-110-112-115-119-120-171000
...EASTERN KENTUCKY...

CITY           SKY/WX    TMP DP  RH WIND       PRES   REMARKS
JACKSON        CLEAR     43  21  41 S5        30.31R
LONDON         CLEAR     37  29  72 S3        30.32R
SOMERSET*      PTCLDY    41  28  60 S3        30.32R
MONTICELLO*    PTCLDY    42  30  62 S8        30.32R
WILLIAMSBURG*  CLEAR     36  32  87 SE5       30.33  WCI  32
MIDDLESBORO*   CLEAR     32  30  92 CALM      30.37R
HARLAN APT*    SUNNY     45  21  39 E5        30.35R
BLACK MTN*       N/A     30  21  69 S7          N/A  WCI  23
PIKEVILLE APT* CLEAR     43  19  39 SE8       30.33R
BIG SANDY*     SUNNY     43  23  44 SE6       30.34R
ASHLAND*       CLEAR     39  28  65 E3        30.31S
MOREHEAD APT*  SUNNY     41  23  48 S6        30.33R
$$

KYZ035-036-041-042-044-050-067-078-099-171000
...CENTRAL KENTUCKY...

CITY           SKY/WX    TMP DP  RH WIND       PRES   REMARKS
MT STERLING*   PTCLDY    41  27  56 S5        30.31R
FLEMING/MASON* CLEAR     37  23  56 SE5       30.31R WCI  34
DANVILLE*      PTCLDY    37  30  75 SW3       30.29R
LEXINGTON      PTCLDY    42  24  49 SE9       30.28R
FRANKFORT      PTCLDY    35  27  72 CALM      30.27R
$$

KYZ091>093-OHZ055-061-077-WVZ005-015-034-035-042-171000
...SOUTHERN OHIO/WEST VIRGINIA...

CITY           SKY/WX    TMP DP  RH WIND       PRES   REMARKS
COVINGTON      PTCLDY    39  23  52 SE6       30.27R WCI  35
COLUMBUS       CLOUDY    40  19  43 SE8       30.31R WCI  34
DAYTON         PTCLDY    37  23  56 SE9       30.28S WCI  30
WILMINGTON     CLEAR     35  23  61 SE6       30.28R WCI  30
HUNTINGTON     CLEAR     37  24  59 E6        30.32S WCI  32
CHARLESTON     CLEAR     43  21  41 SE5       30.35R
PINEVILLE*     CLEAR     40  26  58 MISG      30.43S
BECKLEY        CLEAR     36  15  42 SE14G21   30.38S WCI  27
BLUEFIELD      CLEAR     37  16  42 SE12      30.39S WCI  29
$$

VAZ002-007-008-TNZ017-027-036-066-071-171000
...SOUTHWEST VIRGINIA/EAST TENNESSEE...

CITY           SKY/WX    TMP DP  RH WIND       PRES   REMARKS
WISE*          CLEAR     37  19  48 S8        30.35R WCI  31
ABINGDON*      CLEAR     38  22  51 E10       30.39R WCI  32
BRISTOL        CLEAR     37  20  50 CALM      30.39R
KNOXVILLE      CLEAR     37  32  82 CALM      30.34R
OAK RIDGE      CLEAR     38  32  79 CALM      30.36R
CROSSVILLE     PTCLDY    43  26  51 S6        30.31S
NASHVILLE      CLEAR     48  32  53 S10       30.28R
$$

...KEY TO REMARKS...
VSB - VISIBILITY IN MILES
WCI - WIND CHILL INDEX
HX  - HEAT INDEX

$$



USA.gov is the U.S. government's official web portal to all federal, state and local government web resources and services.